This is the latest recevied weather packets stored in our database for station/object KB1FPD. If no packets are shown the sender has not sent any weather packets the latest 1 day(s).
| Time | Temp. | Humidity | Pressure | Rain* | Wind** | Luminosity | Snow |
|---|---|---|---|---|---|---|---|
| 1778050330 | 17.78° C | 65% | 1009.4 hPa | 0 mm | 3.58 m/s, 165° | - | - |
| 1778050029 | 17.78° C | 65% | 1009.4 hPa | 0 mm | 3.13 m/s, 182° | - | - |
| 1778049738 | 17.78° C | 64% | 1009.5 hPa | 0 mm | 2.68 m/s, 140° | - | - |
| 1778049430 | 17.78° C | 64% | 1009.6 hPa | 0 mm | 2.24 m/s, 176° | - | - |
| 1778049131 | 17.78° C | 63% | 1009.6 hPa | 0 mm | 2.24 m/s, 171° | - | - |
| 1778048829 | 17.78° C | 63% | 1009.7 hPa | 0 mm | 2.68 m/s, 198° | - | - |
| 1778048538 | 17.78° C | 62% | 1009.7 hPa | 0 mm | 2.68 m/s, 193° | - | - |
| 1778048229 | 18.33° C | 62% | 1009.8 hPa | 0 mm | 2.68 m/s, 151° | - | - |
| 1778047928 | 18.33° C | 61% | 1010 hPa | 0 mm | 3.13 m/s, 172° | - | - |
| 1778047631 | 18.33° C | 61% | 1009.9 hPa | 0 mm | 3.58 m/s, 166° | - | - |
| 1778047328 | 18.33° C | 61% | 1009.9 hPa | 0 mm | 2.68 m/s, 144° | - | - |
| 1778047027 | 18.33° C | 60% | 1010.1 hPa | 0 mm | 2.68 m/s, 163° | - | - |
| 1778046729 | 18.33° C | 60% | 1010.3 hPa | 0 mm | 2.68 m/s, 197° | - | - |
| 1778046433 | 18.33° C | 59% | 1010.3 hPa | 0 mm | 3.13 m/s, 157° | - | - |
| 1778046128 | 18.33° C | 59% | 1010.4 hPa | 0 mm | 2.68 m/s, 211° | - | - |
| 1778045833 | 18.33° C | 59% | 1010.5 hPa | 0 mm | 2.24 m/s, 152° | - | - |
| 1778045527 | 18.33° C | 58% | 1010.5 hPa | 0 mm | 2.24 m/s, 159° | - | - |
| 1778045230 | 18.33° C | 58% | 1010.6 hPa | 0 mm | 2.68 m/s, 170° | - | - |
| 1778044927 | 18.33° C | 57% | 1010.5 hPa | 0 mm | 2.24 m/s, 176° | - | - |
| 1778044626 | 18.33° C | 57% | 1010.6 hPa | 0 mm | 2.24 m/s, 167° | - | - |
| 1778044319 | 18.33° C | 57% | 1010.6 hPa | 0 mm | 1.79 m/s, 171° | - | - |
| 1778044014 | 18.33° C | 57% | 1010.7 hPa | 0 mm | 1.34 m/s, 151° | - | - |
| 1778043712 | 18.33° C | 57% | 1010.6 hPa | 0 mm | 1.79 m/s, 184° | - | - |
| 1778043411 | 18.33° C | 57% | 1010.6 hPa | 0 mm | 2.24 m/s, 171° | - | - |
| 1778043111 | 18.33° C | 57% | 1010.7 hPa | 0 mm | 2.68 m/s, 149° | - | - |
* Rain latest hour (hover to see other rain measurements)
** Current wind speed in m/s (hover to see current wind gust speed)